Saint Bonnet de Bellac- Haute Vienne - France
Donnes mto: jeudi, 31/05/2012
Date Horaire Temp. E. Hum. E. P.atmo. Pluie Vent Direction Direction Ensoleilleme Solaire P. de rose Temp au vent Rafales
31/05/2012 00:00 16,4 C 89 % 1020,3 hPa 0,0 mm 0,0 km/h (0 Bft) S-SE 157 0 min 0 W/m 14,6 C 16,4 C 0,0 km/h (0 Bft)
31/05/2012 00:10 16,3 C 90 % 1020,2 hPa 0,0 mm 1,4 km/h (1 Bft) SO 225 0 min 0 W/m 14,7 C 16,3 C 3,6 km/h (1 Bft)
31/05/2012 00:20 16,3 C 90 % 1020,1 hPa 0,0 mm 0,0 km/h (0 Bft) SO 225 0 min 0 W/m 14,7 C 16,3 C 0,0 km/h (0 Bft)
31/05/2012 00:30 16,2 C 90 % 1020,2 hPa 0,0 mm 1,4 km/h (1 Bft) S-SO 202 0 min 0 W/m 14,6 C 16,2 C 4,3 km/h (1 Bft)
31/05/2012 00:40 16,2 C 90 % 1020,2 hPa 0,0 mm 0,0 km/h (0 Bft) S 180 0 min 0 W/m 14,6 C 16,2 C 0,0 km/h (0 Bft)
31/05/2012 00:50 16,2 C 90 % 1020,1 hPa 0,0 mm 0,4 km/h (0 Bft) S 180 0 min 0 W/m 14,6 C 16,2 C 0,4 km/h (0 Bft)
31/05/2012 01:00 16,2 C 90 % 1020,2 hPa 0,0 mm 0,0 km/h (0 Bft) S-SO 202 0 min 0 W/m 14,6 C 16,2 C 0,0 km/h (0 Bft)
31/05/2012 01:10 16,3 C 90 % 1020,1 hPa 0,0 mm 1,8 km/h (1 Bft) S-SO 202 0 min 0 W/m 14,7 C 16,3 C 4,0 km/h (1 Bft)
31/05/2012 01:20 16,2 C 90 % 1020,2 hPa 0,0 mm 0,7 km/h (0 Bft) S-SO 202 0 min 0 W/m 14,6 C 16,2 C 4,0 km/h (1 Bft)
31/05/2012 01:30 16,0 C 90 % 1020,2 hPa 0,0 mm 0,0 km/h (0 Bft) S-SO 202 0 min 0 W/m 14,4 C 16,0 C 0,0 km/h (0 Bft)
31/05/2012 01:40 15,8 C 89 % 1020,3 hPa 0,0 mm 0,0 km/h (0 Bft) S-SO 202 0 min 0 W/m 14,0 C 15,8 C 0,0 km/h (0 Bft)
31/05/2012 01:50 15,7 C 90 % 1020,3 hPa 0,0 mm 0,0 km/h (0 Bft) O-NO 292 0 min 0 W/m 14,1 C 15,7 C 0,0 km/h (0 Bft)
31/05/2012 02:00 15,7 C 91 % 1020,3 hPa 0,0 mm 2,5 km/h (1 Bft) O 270 0 min 0 W/m 14,2 C 15,7 C 2,9 km/h (1 Bft)
31/05/2012 02:10 15,6 C 91 % 1020,2 hPa 0,0 mm 0,0 km/h (0 Bft) O 270 0 min 0 W/m 14,1 C 15,6 C 0,0 km/h (0 Bft)
31/05/2012 02:20 15,5 C 91 % 1020,2 hPa 0,0 mm 0,0 km/h (0 Bft) O 270 0 min 0 W/m 14,0 C 15,5 C 0,0 km/h (0 Bft)
31/05/2012 02:30 15,4 C 91 % 1020,2 hPa 0,0 mm 0,0 km/h (0 Bft) O 270 0 min 0 W/m 13,9 C 15,4 C 0,0 km/h (0 Bft)
31/05/2012 02:40 15,4 C 91 % 1020,1 hPa 0,0 mm 0,0 km/h (0 Bft) SO 225 0 min 0 W/m 13,9 C 15,4 C 0,0 km/h (0 Bft)
31/05/2012 02:50 15,4 C 91 % 1020,1 hPa 0,0 mm 0,0 km/h (0 Bft) S-SO 202 0 min 0 W/m 13,9 C 15,4 C 0,0 km/h (0 Bft)
31/05/2012 03:02 15,3 C 92 % 1020,0 hPa 0,0 mm 0,0 km/h (0 Bft) SO 225 0 min 0 W/m 14,0 C 15,3 C 0,0 km/h (0 Bft)
31/05/2012 03:10 15,2 C 91 % 1020,0 hPa 0,0 mm 0,0 km/h (0 Bft) SO 225 0 min 0 W/m 13,7 C 15,2 C 0,0 km/h (0 Bft)
31/05/2012 03:20 15,1 C 91 % 1020,0 hPa 0,0 mm 0,0 km/h (0 Bft) SO 225 0 min 0 W/m 13,6 C 15,1 C 0,0 km/h (0 Bft)
31/05/2012 03:30 15,0 C 92 % 1019,9 hPa 0,1 mm 2,2 km/h (1 Bft) SO 225 0 min 0 W/m 13,7 C 15,0 C 2,2 km/h (1 Bft)
31/05/2012 03:40 14,9 C 92 % 1019,9 hPa 0,0 mm 2,9 km/h (1 Bft) SO 225 0 min 0 W/m 13,6 C 14,9 C 4,3 km/h (1 Bft)
31/05/2012 03:50 14,8 C 92 % 1020,0 hPa 0,0 mm 2,5 km/h (1 Bft) O-SO 247 0 min 0 W/m 13,5 C 14,8 C 2,5 km/h (1 Bft)
31/05/2012 04:00 14,8 C 92 % 1020,1 hPa 0,0 mm 0,4 km/h (0 Bft) SO 225 0 min 0 W/m 13,5 C 14,8 C 0,4 km/h (0 Bft)
31/05/2012 04:10 14,6 C 92 % 1020,0 hPa 0,0 mm 0,0 km/h (0 Bft) SO 225 0 min 0 W/m 13,3 C 14,6 C 3,2 km/h (1 Bft)
31/05/2012 04:20 14,4 C 92 % 1020,0 hPa 0,0 mm 0,4 km/h (0 Bft) SO 225 0 min 0 W/m 13,1 C 14,4 C 0,4 km/h (0 Bft)
31/05/2012 04:30 14,4 C 93 % 1020,0 hPa 0,0 mm 3,6 km/h (1 Bft) SO 225 0 min 0 W/m 13,3 C 14,4 C 4,3 km/h (1 Bft)
31/05/2012 04:40 14,4 C 93 % 1020,1 hPa 0,0 mm 0,0 km/h (0 Bft) SO 225 0 min 0 W/m 13,3 C 14,4 C 3,6 km/h (1 Bft)
31/05/2012 04:50 14,5 C 93 % 1020,1 hPa 0,0 mm 1,8 km/h (1 Bft) S-SO 202 0 min 0 W/m 13,4 C 14,5 C 3,2 km/h (1 Bft)
31/05/2012 05:00 14,6 C 93 % 1020,1 hPa 0,0 mm 2,2 km/h (1 Bft) SO 225 0 min 0 W/m 13,5 C 14,6 C 4,3 km/h (1 Bft)
31/05/2012 05:10 14,6 C 93 % 1020,2 hPa 0,0 mm 0,7 km/h (0 Bft) SO 225 0 min 0 W/m 13,5 C 14,6 C 3,2 km/h (1 Bft)
31/05/2012 05:20 14,6 C 93 % 1020,2 hPa 0,0 mm 0,0 km/h (0 Bft) S-SO 202 0 min 0 W/m 13,5 C 14,6 C 0,0 km/h (0 Bft)
31/05/2012 05:30 14,6 C 93 % 1020,2 hPa 0,0 mm 0,0 km/h (0 Bft) SO 225 0 min 0 W/m 13,5 C 14,6 C 2,9 km/h (1 Bft)
31/05/2012 05:40 14,6 C 93 % 1020,4 hPa 0,0 mm 0,0 km/h (0 Bft) SO 225 0 min 0 W/m 13,5 C 14,6 C 0,0 km/h (0 Bft)
31/05/2012 05:50 14,6 C 93 % 1020,4 hPa 0,0 mm 0,7 km/h (0 Bft) O-SO 247 0 min 0 W/m 13,5 C 14,6 C 3,6 km/h (1 Bft)
31/05/2012 06:00 14,5 C 93 % 1020,5 hPa 0,0 mm 0,0 km/h (0 Bft) O-SO 247 0 min 0 W/m 13,4 C 14,5 C 0,0 km/h (0 Bft)
31/05/2012 06:10 14,4 C 93 % 1020,5 hPa 0,0 mm 0,0 km/h (0 Bft) O-SO 247 0 min 0 W/m 13,3 C 14,4 C 0,0 km/h (0 Bft)
31/05/2012 06:20 14,4 C 93 % 1020,6 hPa 0,0 mm 0,0 km/h (0 Bft) O-SO 247 0 min 0 W/m 13,3 C 14,4 C 0,0 km/h (0 Bft)
31/05/2012 06:30 14,3 C 93 % 1020,6 hPa 0,0 mm 0,0 km/h (0 Bft) O-SO 247 0 min 0 W/m 13,2 C 14,3 C 0,0 km/h (0 Bft)
31/05/2012 06:40 14,3 C 93 % 1020,7 hPa 0,0 mm 0,0 km/h (0 Bft) SO 225 0 min 0 W/m 13,2 C 14,3 C 3,6 km/h (1 Bft)
31/05/2012 06:50 14,3 C 93 % 1020,8 hPa 0,0 mm 0,0 km/h (0 Bft) O-SO 247 0 min 0 W/m 13,2 C 14,3 C 0,0 km/h (0 Bft)
31/05/2012 07:00 14,2 C 93 % 1020,8 hPa 0,0 mm 0,0 km/h (0 Bft) NO 315 0 min 0 W/m 13,1 C 14,2 C 0,0 km/h (0 Bft)
31/05/2012 07:10 14,2 C 93 % 1020,8 hPa 0,0 mm 1,1 km/h (1 Bft) N-NO 337 0 min 0 W/m 13,1 C 14,2 C 4,3 km/h (1 Bft)
31/05/2012 07:20 14,1 C 93 % 1020,9 hPa 0,0 mm 0,0 km/h (0 Bft) O 270 0 min 0 W/m 13,0 C 14,1 C 0,0 km/h (0 Bft)
31/05/2012 07:30 14,1 C 93 % 1020,9 hPa 0,0 mm 0,0 km/h (0 Bft) O 270 0 min 0 W/m 13,0 C 14,1 C 0,0 km/h (0 Bft)
31/05/2012 07:40 14,1 C 93 % 1020,9 hPa 0,0 mm 0,0 km/h (0 Bft) O 270 0 min 0 W/m 13,0 C 14,1 C 0,0 km/h (0 Bft)
31/05/2012 07:50 14,1 C 93 % 1021,0 hPa 0,0 mm 0,0 km/h (0 Bft) O 270 0 min 0 W/m 13,0 C 14,1 C 0,0 km/h (0 Bft)
31/05/2012 08:00 14,2 C 93 % 1021,2 hPa 0,0 mm 0,0 km/h (0 Bft) O 270 0 min 0 W/m 13,1 C 14,2 C 0,0 km/h (0 Bft)
31/05/2012 08:10 14,3 C 93 % 1021,2 hPa 0,0 mm 0,4 km/h (0 Bft) O-NO 292 0 min 0 W/m 13,2 C 14,3 C 3,6 km/h (1 Bft)
31/05/2012 08:20 14,4 C 93 % 1021,2 hPa 0,0 mm 0,4 km/h (0 Bft) O-NO 292 0 min 0 W/m 13,3 C 14,4 C 0,4 km/h (0 Bft)
31/05/2012 08:30 14,5 C 93 % 1021,4 hPa 0,0 mm 0,4 km/h (0 Bft) O-NO 292 0 min 0 W/m 13,4 C 14,5 C 3,2 km/h (1 Bft)
31/05/2012 08:40 14,6 C 93 % 1021,3 hPa 0,0 mm 0,4 km/h (0 Bft) O-NO 292 0 min 0 W/m 13,5 C 14,6 C 3,6 km/h (1 Bft)
31/05/2012 08:50 14,6 C 93 % 1021,3 hPa 0,0 mm 0,0 km/h (0 Bft) O 270 0 min 0 W/m 13,5 C 14,6 C 0,0 km/h (0 Bft)
31/05/2012 09:00 14,8 C 93 % 1021,3 hPa 0,0 mm 0,0 km/h (0 Bft) O 270 0 min 0 W/m 13,7 C 14,8 C 0,0 km/h (0 Bft)
31/05/2012 09:10 14,8 C 93 % 1021,4 hPa 0,0 mm 0,0 km/h (0 Bft) O 270 0 min 0 W/m 13,7 C 14,8 C 0,0 km/h (0 Bft)
31/05/2012 09:20 14,9 C 93 % 1021,5 hPa 0,0 mm 0,0 km/h (0 Bft) O 270 0 min 0 W/m 13,8 C 14,9 C 0,0 km/h (0 Bft)
31/05/2012 09:30 15,1 C 93 % 1021,6 hPa 0,0 mm 0,0 km/h (0 Bft) N 360 0 min 0 W/m 14,0 C 15,1 C 0,0 km/h (0 Bft)
31/05/2012 09:40 15,2 C 93 % 1021,7 hPa 0,0 mm 1,4 km/h (1 Bft) O 270 0 min 0 W/m 14,1 C 15,2 C 4,3 km/h (1 Bft)
31/05/2012 09:50 15,3 C 93 % 1021,7 hPa 0,0 mm 0,0 km/h (0 Bft) O 270 0 min 0 W/m 14,2 C 15,3 C 0,0 km/h (0 Bft)
31/05/2012 10:00 15,4 C 93 % 1021,7 hPa 0,0 mm 0,0 km/h (0 Bft) O 270 0 min 0 W/m 14,3 C 15,4 C 0,0 km/h (0 Bft)
31/05/2012 10:10 15,5 C 93 % 1021,6 hPa 0,0 mm 0,0 km/h (0 Bft) O 270 0 min 0 W/m 14,4 C 15,5 C 0,0 km/h (0 Bft)
31/05/2012 10:20 15,7 C 93 % 1021,7 hPa 0,0 mm 1,1 km/h (1 Bft) O 270 0 min 0 W/m 14,6 C 15,7 C 3,6 km/h (1 Bft)
31/05/2012 10:30 15,8 C 93 % 1021,7 hPa 0,0 mm 1,1 km/h (1 Bft) NO 315 0 min 0 W/m 14,7 C 15,8 C 4,0 km/h (1 Bft)
31/05/2012 10:40 16,1 C 93 % 1021,9 hPa 0,0 mm 0,7 km/h (0 Bft) NO 315 0 min 0 W/m 15,0 C 16,1 C 6,1 km/h (2 Bft)
31/05/2012 10:50 16,3 C 93 % 1021,9 hPa 0,0 mm 0,0 km/h (0 Bft) NO 315 0 min 0 W/m 15,2 C 16,3 C 0,0 km/h (0 Bft)
31/05/2012 11:00 16,6 C 92 % 1022,0 hPa 0,0 mm 0,4 km/h (0 Bft) N-NO 337 0 min 0 W/m 15,3 C 16,6 C 4,0 km/h (1 Bft)
31/05/2012 11:10 16,9 C 92 % 1021,9 hPa 0,0 mm 0,0 km/h (0 Bft) NO 315 0 min 0 W/m 15,6 C 16,9 C 0,0 km/h (0 Bft)
31/05/2012 11:20 17,2 C 91 % 1021,9 hPa 0,0 mm 0,0 km/h (0 Bft) NO 315 0 min 0 W/m 15,7 C 17,2 C 0,0 km/h (0 Bft)
31/05/2012 11:30 17,4 C 89 % 1021,9 hPa 0,0 mm 0,7 km/h (0 Bft) O-NO 292 0 min 0 W/m 15,6 C 17,4 C 3,6 km/h (1 Bft)
31/05/2012 11:40 17,6 C 89 % 1022,0 hPa 0,0 mm 0,0 km/h (0 Bft) O-NO 292 0 min 0 W/m 15,8 C 17,6 C 0,0 km/h (0 Bft)
31/05/2012 11:50 17,9 C 88 % 1022,0 hPa 0,0 mm 2,9 km/h (1 Bft) NO 315 0 min 0 W/m 15,9 C 17,9 C 4,3 km/h (1 Bft)
31/05/2012 12:00 18,2 C 87 % 1022,1 hPa 0,0 mm 0,0 km/h (0 Bft) N-NO 337 0 min 0 W/m 16,0 C 18,2 C 0,0 km/h (0 Bft)
31/05/2012 12:10 18,3 C 87 % 1022,1 hPa 0,0 mm 0,0 km/h (0 Bft) N 360 0 min 0 W/m 16,1 C 18,3 C 0,0 km/h (0 Bft)
31/05/2012 12:20 18,8 C 85 % 1022,1 hPa 0,0 mm 0,0 km/h (0 Bft) NO 315 0 min 0 W/m 16,2 C 18,8 C 0,0 km/h (0 Bft)
31/05/2012 12:30 19,1 C 84 % 1022,2 hPa 0,0 mm 0,0 km/h (0 Bft) NO 315 0 min 0 W/m 16,3 C 19,1 C 0,0 km/h (0 Bft)
31/05/2012 12:40 19,6 C 82 % 1022,2 hPa 0,0 mm 0,7 km/h (0 Bft) N-NE 22 0 min 0 W/m 16,4 C 19,6 C 4,0 km/h (1 Bft)
31/05/2012 12:50 20,4 C 80 % 1022,1 hPa 0,0 mm 0,4 km/h (0 Bft) N 360 0 min 0 W/m 16,8 C 20,4 C 3,6 km/h (1 Bft)
31/05/2012 13:00 20,9 C 78 % 1022,1 hPa 0,0 mm 1,4 km/h (1 Bft) N-NE 22 0 min 0 W/m 16,9 C 20,9 C 3,6 km/h (1 Bft)
31/05/2012 13:10 20,9 C 75 % 1022,1 hPa 0,0 mm 0,0 km/h (0 Bft) NE 45 0 min 0 W/m 16,3 C 20,9 C 0,0 km/h (0 Bft)
31/05/2012 13:20 21,3 C 75 % 1021,9 hPa 0,0 mm 0,0 km/h (0 Bft) N-NO 337 0 min 0 W/m 16,7 C 21,3 C 0,0 km/h (0 Bft)
31/05/2012 13:30 21,6 C 71 % 1021,9 hPa 0,0 mm 1,4 km/h (1 Bft) N-NE 22 0 min 0 W/m 16,1 C 21,6 C 3,6 km/h (1 Bft)
31/05/2012 13:40 21,9 C 71 % 1021,8 hPa 0,0 mm 0,0 km/h (0 Bft) N-NE 22 0 min 0 W/m 16,4 C 21,9 C 0,0 km/h (0 Bft)
31/05/2012 13:50 22,1 C 70 % 1021,7 hPa 0,0 mm 0,0 km/h (0 Bft) N 360 0 min 0 W/m 16,4 C 22,1 C 0,0 km/h (0 Bft)
31/05/2012 14:00 22,5 C 69 % 1021,7 hPa 0,0 mm 0,4 km/h (0 Bft) N-NO 337 0 min 0 W/m 16,5 C 22,5 C 0,4 km/h (0 Bft)
31/05/2012 14:10 22,4 C 67 % 1021,6 hPa 0,0 mm 1,1 km/h (1 Bft) N-NO 337 0 min 0 W/m 16,0 C 22,4 C 4,0 km/h (1 Bft)
31/05/2012 14:20 22,5 C 67 % 1021,5 hPa 0,0 mm 0,0 km/h (0 Bft) NO 315 0 min 0 W/m 16,1 C 22,5 C 0,0 km/h (0 Bft)
31/05/2012 14:30 22,6 C 66 % 1021,5 hPa 0,0 mm 2,9 km/h (1 Bft) NE 45 0 min 0 W/m 15,9 C 22,6 C 2,9 km/h (1 Bft)
31/05/2012 14:40 22,4 C 65 % 1021,5 hPa 0,0 mm 0,0 km/h (0 Bft) NE 45 0 min 0 W/m 15,5 C 22,4 C 0,0 km/h (0 Bft)
31/05/2012 14:50 22,5 C 66 % 1021,4 hPa 0,0 mm 0,0 km/h (0 Bft) N 360 0 min 0 W/m 15,8 C 22,5 C 0,0 km/h (0 Bft)
31/05/2012 15:00 22,6 C 66 % 1021,3 hPa 0,0 mm 0,0 km/h (0 Bft) O 270 0 min 0 W/m 15,9 C 22,6 C 0,0 km/h (0 Bft)
31/05/2012 15:10 22,9 C 65 % 1021,3 hPa 0,0 mm 2,5 km/h (1 Bft) S-SO 202 0 min 0 W/m 16,0 C 22,9 C 4,0 km/h (1 Bft)
31/05/2012 15:20 23,1 C 65 % 1021,1 hPa 0,0 mm 1,4 km/h (1 Bft) N-NE 22 0 min 0 W/m 16,2 C 23,1 C 1,4 km/h (1 Bft)
31/05/2012 15:30 23,4 C 63 % 1020,9 hPa 0,0 mm 1,1 km/h (1 Bft) N-NE 22 0 min 0 W/m 15,9 C 23,4 C 4,0 km/h (1 Bft)
31/05/2012 15:40 23,4 C 62 % 1020,9 hPa 0,0 mm 0,4 km/h (0 Bft) SO 225 0 min 0 W/m 15,7 C 23,4 C 2,9 km/h (1 Bft)
31/05/2012 15:50 23,4 C 64 % 1020,9 hPa 0,0 mm 5,0 km/h (1 Bft) NO 315 0 min 0 W/m 16,2 C 23,4 C 10,4 km/h (2 Bft)
31/05/2012 16:00 23,5 C 62 % 1020,7 hPa 0,0 mm 3,2 km/h (1 Bft) N-NO 337 0 min 0 W/m 15,8 C 23,5 C 7,2 km/h (2 Bft)
31/05/2012 16:10 23,5 C 60 % 1020,7 hPa 0,0 mm 3,2 km/h (1 Bft) N 360 0 min 0 W/m 15,3 C 23,5 C 3,2 km/h (1 Bft)
31/05/2012 16:20 23,4 C 61 % 1020,7 hPa 0,0 mm 1,4 km/h (1 Bft) N-NE 22 0 min 0 W/m 15,4 C 23,4 C 3,2 km/h (1 Bft)
31/05/2012 16:30 23,4 C 61 % 1020,7 hPa 0,0 mm 2,2 km/h (1 Bft) NE 45 0 min 0 W/m 15,4 C 23,4 C 3,6 km/h (1 Bft)
31/05/2012 16:40 23,5 C 61 % 1020,6 hPa 0,0 mm 2,2 km/h (1 Bft) N-NE 22 0 min 0 W/m 15,5 C 23,5 C 2,9 km/h (1 Bft)
31/05/2012 16:50 23,4 C 61 % 1020,6 hPa 0,0 mm 1,1 km/h (1 Bft) N-NE 22 0 min 0 W/m 15,4 C 23,4 C 4,0 km/h (1 Bft)
31/05/2012 17:00 23,3 C 62 % 1020,5 hPa 0,0 mm 2,2 km/h (1 Bft) NO 315 0 min 0 W/m 15,6 C 23,3 C 2,2 km/h (1 Bft)
31/05/2012 17:10 23,5 C 61 % 1020,4 hPa 0,0 mm 2,5 km/h (1 Bft) NO 315 0 min 0 W/m 15,5 C 23,5 C 5,8 km/h (2 Bft)
31/05/2012 17:20 23,8 C 60 % 1020,5 hPa 0,0 mm 2,9 km/h (1 Bft) N-NE 22 0 min 0 W/m 15,6 C 23,8 C 4,3 km/h (1 Bft)
31/05/2012 17:30 23,9 C 60 % 1020,4 hPa 0,0 mm 1,4 km/h (1 Bft) N-NE 22 0 min 0 W/m 15,7 C 23,9 C 4,0 km/h (1 Bft)
31/05/2012 17:40 24,1 C 58 % 1020,2 hPa 0,0 mm 1,1 km/h (1 Bft) N 360 0 min 0 W/m 15,3 C 24,1 C 1,1 km/h (1 Bft)
31/05/2012 17:50 24,0 C 59 % 1020,2 hPa 0,0 mm 4,0 km/h (1 Bft) N 360 0 min 0 W/m 15,5 C 24,0 C 7,9 km/h (2 Bft)
31/05/2012 18:00 24,0 C 58 % 1020,1 hPa 0,0 mm 0,0 km/h (0 Bft) N 360 0 min 0 W/m 15,2 C 24,0 C 3,2 km/h (1 Bft)
31/05/2012 18:10 24,0 C 58 % 1020,0 hPa 0,0 mm 0,0 km/h (0 Bft) NO 315 0 min 0 W/m 15,2 C 24,0 C 0,0 km/h (0 Bft)
31/05/2012 18:20 24,1 C 57 % 1020,0 hPa 0,0 mm 6,5 km/h (2 Bft) O-NO 292 0 min 0 W/m 15,0 C 24,1 C 13,3 km/h (3 Bft)
31/05/2012 18:30 24,2 C 58 % 1019,9 hPa 0,0 mm 2,2 km/h (1 Bft) N-NE 22 0 min 0 W/m 15,4 C 24,2 C 2,2 km/h (1 Bft)
31/05/2012 18:40 24,4 C 57 % 1020,1 hPa 0,0 mm 2,2 km/h (1 Bft) N 360 0 min 0 W/m 15,3 C 24,4 C 6,5 km/h (2 Bft)
31/05/2012 18:50 24,4 C 56 % 1020,0 hPa 0,0 mm 4,3 km/h (1 Bft) NE 45 0 min 0 W/m 15,0 C 24,4 C 7,6 km/h (2 Bft)
31/05/2012 19:00 24,2 C 57 % 1020,0 hPa 0,0 mm 0,0 km/h (0 Bft) NE 45 0 min 0 W/m 15,1 C 24,2 C 0,0 km/h (0 Bft)
31/05/2012 19:10 24,2 C 57 % 1019,9 hPa 0,0 mm 0,0 km/h (0 Bft) N-NE 22 0 min 0 W/m 15,1 C 24,2 C 0,0 km/h (0 Bft)
31/05/2012 19:20 24,1 C 58 % 1019,9 hPa 0,0 mm 0,0 km/h (0 Bft) N-NE 22 0 min 0 W/m 15,3 C 24,1 C 0,0 km/h (0 Bft)
31/05/2012 19:30 24,1 C 57 % 1019,9 hPa 0,0 mm 0,0 km/h (0 Bft) N 360 0 min 0 W/m 15,0 C 24,1 C 0,0 km/h (0 Bft)
31/05/2012 19:40 23,8 C 57 % 1019,9 hPa 0,0 mm 0,7 km/h (0 Bft) N 360 0 min 0 W/m 14,8 C 23,8 C 0,7 km/h (0 Bft)
31/05/2012 19:50 23,6 C 58 % 1019,8 hPa 0,0 mm 0,0 km/h (0 Bft) N-NE 22 0 min 0 W/m 14,8 C 23,6 C 0,0 km/h (0 Bft)
31/05/2012 20:00 23,4 C 59 % 1019,9 hPa 0,0 mm 0,0 km/h (0 Bft) N 360 0 min 0 W/m 14,9 C 23,4 C 0,0 km/h (0 Bft)
31/05/2012 20:10 23,1 C 60 % 1019,8 hPa 0,0 mm 0,0 km/h (0 Bft) N 360 0 min 0 W/m 14,9 C 23,1 C 0,0 km/h (0 Bft)
31/05/2012 20:20 22,6 C 60 % 1019,9 hPa 0,0 mm 0,0 km/h (0 Bft) N-NE 22 0 min 0 W/m 14,4 C 22,6 C 0,0 km/h (0 Bft)
31/05/2012 20:30 22,3 C 61 % 1019,9 hPa 0,0 mm 0,0 km/h (0 Bft) N-NO 337 0 min 0 W/m 14,4 C 22,3 C 0,0 km/h (0 Bft)
31/05/2012 20:40 21,8 C 62 % 1020,0 hPa 0,0 mm 0,0 km/h (0 Bft) N-NO 337 0 min 0 W/m 14,2 C 21,8 C 0,0 km/h (0 Bft)
31/05/2012 20:50 21,4 C 63 % 1020,1 hPa 0,0 mm 0,0 km/h (0 Bft) N-NO 337 0 min 0 W/m 14,1 C 21,4 C 0,0 km/h (0 Bft)
31/05/2012 21:00 20,9 C 64 % 1020,1 hPa 0,0 mm 0,0 km/h (0 Bft) N-NO 337 0 min 0 W/m 13,8 C 20,9 C 0,0 km/h (0 Bft)
31/05/2012 21:10 20,4 C 65 % 1020,1 hPa 0,0 mm 0,0 km/h (0 Bft) N-NO 337 0 min 0 W/m 13,6 C 20,4 C 0,0 km/h (0 Bft)
31/05/2012 21:20 19,9 C 66 % 1020,1 hPa 0,0 mm 0,0 km/h (0 Bft) N-NO 337 0 min 0 W/m 13,4 C 19,9 C 0,0 km/h (0 Bft)
31/05/2012 21:30 19,4 C 67 % 1020,1 hPa 0,0 mm 0,0 km/h (0 Bft) N-NO 337 0 min 0 W/m 13,1 C 19,4 C 0,0 km/h (0 Bft)
31/05/2012 21:40 18,9 C 68 % 1020,1 hPa 0,0 mm 0,0 km/h (0 Bft) N-NO 337 0 min 0 W/m 12,9 C 18,9 C 0,0 km/h (0 Bft)
31/05/2012 21:50 18,5 C 69 % 1020,1 hPa 0,0 mm 0,0 km/h (0 Bft) N-NO 337 0 min 0 W/m 12,7 C 18,5 C 0,0 km/h (0 Bft)
31/05/2012 22:00 18,1 C 70 % 1020,3 hPa 0,0 mm 0,0 km/h (0 Bft) N-NO 337 0 min 0 W/m 12,5 C 18,1 C 0,0 km/h (0 Bft)
31/05/2012 22:10 17,8 C 71 % 1020,3 hPa 0,0 mm 0,0 km/h (0 Bft) N-NO 337 0 min 0 W/m 12,5 C 17,8 C 0,0 km/h (0 Bft)
31/05/2012 22:20 17,3 C 73 % 1020,4 hPa 0,0 mm 0,0 km/h (0 Bft) N-NO 337 0 min 0 W/m 12,4 C 17,3 C 0,0 km/h (0 Bft)
31/05/2012 22:30 17,0 C 74 % 1020,5 hPa 0,0 mm 0,0 km/h (0 Bft) N-NO 337 0 min 0 W/m 12,3 C 17,0 C 0,0 km/h (0 Bft)
31/05/2012 22:40 16,6 C 75 % 1020,6 hPa 0,0 mm 0,0 km/h (0 Bft) N-NO 337 0 min 0 W/m 12,1 C 16,6 C 0,0 km/h (0 Bft)
31/05/2012 22:50 16,3 C 76 % 1020,6 hPa 0,0 mm 0,0 km/h (0 Bft) N-NO 337 0 min 0 W/m 12,1 C 16,3 C 0,0 km/h (0 Bft)
31/05/2012 23:00 16,1 C 77 % 1020,5 hPa 0,0 mm 0,0 km/h (0 Bft) N-NO 337 0 min 0 W/m 12,1 C 16,1 C 0,0 km/h (0 Bft)
31/05/2012 23:10 15,8 C 77 % 1020,5 hPa 0,0 mm 0,0 km/h (0 Bft) N-NO 337 0 min 0 W/m 11,8 C 15,8 C 0,0 km/h (0 Bft)
31/05/2012 23:20 15,6 C 79 % 1020,4 hPa 0,0 mm 0,0 km/h (0 Bft) N-NO 337 0 min 0 W/m 12,0 C 15,6 C 0,0 km/h (0 Bft)
31/05/2012 23:30 15,4 C 79 % 1020,4 hPa 0,0 mm 0,0 km/h (0 Bft) N-NO 337 0 min 0 W/m 11,8 C 15,4 C 0,0 km/h (0 Bft)
31/05/2012 23:40 15,2 C 79 % 1020,4 hPa 0,0 mm 0,0 km/h (0 Bft) N-NO 337 0 min 0 W/m 11,6 C 15,2 C 0,0 km/h (0 Bft)
31/05/2012 23:50 14,9 C 80 % 1020,4 hPa 0,0 mm 0,0 km/h (0 Bft) N-NO 337 0 min 0 W/m 11,5 C 14,9 C 0,0 km/h (0 Bft)
_ Min-Heure 07:50 18:50 20:10 - 23:50 - - - - 23:50 07:50 23:50
Minimum _ 14,1 C 56 % 1019,8 hPa - 0,0 km/h (0 Bft) - - - - 11,5 C 14,1 C 0,0 km/h (0 Bft)
_ Max-Heure 18:50 10:50 12:40 03:30 18:20 - - 23:50 23:50 13:00 18:50 18:20
Maximum _ 24,4 C 93 % 1022,2 hPa 0,1 mm 6,5 km/h
O-NO (2 Bft)
- - 0 min 0 W/m 16,9 C 24,4 C 13,3 km/h
O-NO (3 Bft)
Moyenne _ 18,3 C 79 % 1020,7 hPa #0,1 mm 0,7 km/h (0 Bft) N-NO - #0 min. 0 W/m 14,4 C 18,3 C 1,6 km/h (1 Bft)
Saint Bonnet de Bellac- Haute Vienne - France